This demonstration page uses our WeatherBlox Daily Observations layout. Learn more.

Left ArrowRight Arrow

31.84235, -102.49876

Hourly Observations for May 29, 2015

Temp ( °F °C ) Dew Point ( °F °C ) Humidity (%) Winds ( mph kmh ) Pressure ( in mb ) Visibility ( mi km ) Precip ( " mm )
12:53 am 00:53 Clear 62 16.7 57 13.9 84 84 NE 15 24 29.87 1012 10 16 0.00 0.00
2:53 am 02:53 Clear 61 16.1 56 13.3 84 84 SSW 5 7 29.84 1010 10 16 0.00 0.00
3:53 am 03:53 Clear 60 15.6 56 13.3 86 86 SW 3 6 29.83 1010 10 16 0.00 0.00
4:53 am 04:53 Clear 62 16.7 54 12.2 75 75 VRB 3 6 29.84 1011 10 16 0.00 0.00
5:53 am 05:53 Clear 60 15.6 53 11.7 78 78 ESE 3 6 29.86 1011 10 16 0.00 0.00
6:53 am 06:53 Sunny 59 15 55 12.8 87 87 NE 9 15 29.88 1012 10 16 0.00 0.00
7:53 am 07:53 Sunny 61 16.1 56 13.3 84 84 ENE 8 13 29.90 1013 10 16 0.00 0.00
8:53 am 08:53 Sunny 66 18.9 58 14.4 75 75 E 10 17 29.91 1013 10 16 0.00 0.00
9:53 am 09:53 Sunny 69 20.6 58 14.4 68 68 E 12 19 29.91 1013 10 16 0.00 0.00
10:53 am 10:53 Sunny 71 21.7 59 15 66 66 ENE 5 7 29.91 1013 10 16 0.00 0.00
11:53 am 11:53 Sunny 74 23.3 60 15.6 62 62 VRB 3 6 29.91 1013 10 16 0.00 0.00
12:53 pm 12:53 Sunny 75 23.9 60 15.6 60 60 E 3 6 29.90 1013 10 16 0.00 0.00
1:53 pm 13:53 Sunny 78 25.6 61 16.1 56 56 Calm 29.89 1012 10 16 0.00 0.00
2:53 pm 14:53 Sunny 80 26.7 61 16.1 52 52 VRB 3 6 29.88 1012 10 16 0.00 0.00
3:53 pm 15:53 Sunny 83 28.3 61 16.1 48 48 ENE 6 9 29.86 1011 10 16 0.00 0.00
4:53 pm 16:53 Sunny 84 28.9 61 16.1 46 46 E 8 13 29.84 1011 10 16 0.00 0.00
5:53 pm 17:53 Mostly Sunny 84 28.9 62 16.7 48 48 ESE 13 20 29.84 1010 10 16 0.00 0.00
6:53 pm 18:53 Sunny 83 28.3 60 15.6 46 46 E 7 11 29.84 1011 10 16 0.00 0.00
7:53 pm 19:53 Sunny 82 27.8 61 16.1 49 49 ESE 9 15 29.84 1010 10 16 0.00 0.00
8:53 pm 20:53 Clear 78 25.6 60 15.6 54 54 ESE 7 11 29.84 1011 10 16 0.00 0.00
9:53 pm 21:53 Clear 76 24.4 61 16.1 60 60 E 8 13 29.85 1011 10 16 0.00 0.00
10:35 pm 22:35 Mostly Clear 77 25 65 18.3 66 66 SSE 14 22 29.83 1010 10 16 0.00 0.00
10:53 pm 22:53 Mostly Cloudy 76 24.4 65 18.3 69 69 SSE 16 26 29.91 1013 10 16 0.00 0.00
11:53 pm 23:53 Clear 74 23.3 65 18.3 74 74 S 6 9 29.93 1013 8 13 0.00 0.00

Powered by AerisWeather